[[{"header":{"parameterUnit":"m.s-1","parameterCategory":1,"la1":30.2992,"la2":30.254,"lo1":-89.0895,"lo2":-89.0443,"dy":0.0025,"dx":0.0025,"nx":19,"ny":19,"refTime":"2026-03-09T03:00:00:Z","depth":0,"parameterNumber":2,"parameterNumberName":"U-component_of_WINDS"},"data":[0,0,0,-1.8379,-1.8379,-1.8346,-1.8346,-1.8318,-1.8318,0,0,0,0,0,0,0,0,0,0,0,-1.8396,-1.8396,-1.8379,-1.8379,-1.8346,-1.8346,-1.8319,-1.8318,0,0,0,0,0,0,0,0,0,0,0,-1.8396,-1.8396,-1.8396,-1.8378,-1.8346,-1.8346,-1.8319,-1.8338,0,0,0,0,0,0,0,0,0,0,-1.8368,-1.839,-1.8396,-1.8396,-1.8378,-1.8346,-1.8346,-1.8339,-1.8337,-1.8339,0,-1.8341,0,-1.8329,-1.8317,-1.8317,0,0,0,-1.8373,-1.8392,-1.8376,-1.8396,-1.8378,-1.8346,-1.8359,-1.8338,-1.8336,-1.8336,-1.8341,-1.834,-1.8329,-1.8317,-1.8317,-1.8343,-1.8343,0,0,-1.8375,-1.8394,-1.8378,-1.8375,-1.838,-1.836,-1.8358,-1.8336,-1.8343,-1.8341,-1.8339,-1.8329,-1.8317,-1.8317,-1.8343,-1.8343,0,0,0,-1.8384,-1.8396,-1.8381,-1.8377,-1.837,-1.8359,-1.8357,-1.8344,-1.8337,-1.8338,-1.8328,-1.8317,-1.8317,-1.8342,-1.8343,-1.8379,0,0,0,-1.8385,-1.8401,-1.8382,-1.8393,-1.837,-1.8356,-1.8365,-1.8339,-1.8336,-1.8328,-1.8317,-1.8317,-1.8342,-1.8342,-1.8377,-1.8393,0,0,0,-1.8396,-1.8402,-1.84,-1.8394,-1.8381,-1.8356,-1.8348,-1.8338,-1.833,-1.8317,-1.8317,-1.8341,-1.8342,-1.8375,-1.839,-1.8405,0,0,0,-1.8413,-1.8432,-1.8401,-1.8418,-1.8381,-1.8378,-1.8348,-1.8345,-1.8338,-1.8317,-1.8342,-1.8343,-1.8375,-1.8388,-1.8404,-1.8421,-1.8431,0,0,-1.8448,-1.8437,-1.8446,-1.8417,-1.8424,-1.8382,-1.8395,-1.8371,-1.8353,-1.8348,-1.8348,-1.8378,-1.839,-1.8405,-1.8476,-1.8483,0,0,0,-1.8464,-1.8471,-1.8469,-1.8463,-1.8445,-1.8431,-1.8404,-1.8395,-1.839,-1.8354,-1.8387,-1.8393,-1.8402,-1.8409,-1.8416,-1.8422,-1.8347,-1.8347,-1.8347,-1.8541,-1.8516,-1.853,-1.8501,-1.8497,-1.8468,-1.8463,-1.8447,-1.8423,-1.8432,-1.843,-1.8476,-1.8485,-1.849,-1.8497,-1.8437,-1.8437,-1.8438,-1.8438,-1.859,-1.8595,-1.8564,-1.8566,-1.8541,-1.8543,-1.8517,-1.8501,-1.85,-1.8475,-1.8481,-1.8456,-1.8499,-1.8503,-1.844,-1.844,-1.8439,-1.8439,-1.8439,-1.8637,-1.8635,-1.8624,-1.8614,-1.861,-1.8581,-1.8582,-1.8559,-1.8537,-1.8543,-1.8539,-1.8538,-1.8535,-1.8543,-1.8543,-1.8543,-1.8543,-1.8544,-1.8544,-1.869,-1.8677,-1.8679,-1.8663,-1.8656,-1.8646,-1.8619,-1.8612,-1.86,-1.8583,-1.8583,-1.856,-1.8507,-1.8495,-1.8546,-1.8546,-1.8545,-1.8545,-1.8545,-1.8749,-1.8732,-1.8736,-1.873,-1.8709,-1.8707,-1.8677,-1.8667,-1.8659,-1.866,-1.8636,-1.8601,-1.8588,-1.8583,-1.8572,-1.8641,-1.8641,-1.8641,-1.8641,-1.8789,-1.878,-1.8779,-1.8771,-1.8761,-1.8735,-1.8742,-1.8722,-1.8698,-1.8692,-1.8679,-1.8663,-1.8659,-1.8649,-1.8642,-1.8632,-1.8714,-1.8714,-1.8714,-1.8823,-1.8813,-1.8822,-1.8798,-1.878,-1.8766,-1.8772,-1.8766,-1.8736,-1.8716,-1.8687,-1.8684,-1.8658,-1.8651,-1.863,-1.862,-1.86,0,0]},{"header":{"parameterUnit":"m.s-1","parameterCategory":1,"la1":30.2992,"la2":30.254,"lo1":-89.0895,"lo2":-89.0443,"dy":0.0025,"dx":0.0025,"nx":19,"ny":19,"refTime":"2026-03-09T03:00:00:Z","depth":0,"parameterNumber":3,"parameterNumberName":"V-component_of_WINDS"},"data":[0,0,0,3.9275,3.9276,3.9313,3.9313,3.9364,3.9365,0,0,0,0,0,0,0,0,0,0,0,3.9268,3.9268,3.9275,3.9276,3.9313,3.9313,3.9364,3.9365,0,0,0,0,0,0,0,0,0,0,0,3.9268,3.9268,3.9269,3.9276,3.9313,3.9313,3.9364,3.9335,0,0,0,0,0,0,0,0,0,0,3.9298,3.9294,3.9268,3.9269,3.9277,3.9313,3.9313,3.9333,3.9336,3.935,0,3.9363,0,3.9365,3.9368,3.9369,0,0,0,3.9274,3.9292,3.9299,3.9269,3.9277,3.9313,3.9296,3.9335,3.9339,3.9354,3.9363,3.9365,3.9366,3.9369,3.9369,3.9457,3.9457,0,0,3.9272,3.9276,3.9296,3.9301,3.9297,3.9294,3.9297,3.9337,3.9347,3.9364,3.9366,3.9366,3.9369,3.937,3.9456,3.9457,0,0,0,3.9268,3.9274,3.928,3.9299,3.9306,3.9296,3.9298,3.9345,3.9347,3.9367,3.9367,3.9369,3.937,3.9456,3.9457,3.9489,0,0,0,3.9266,3.9272,3.928,3.9283,3.9305,3.9326,3.9306,3.9344,3.9349,3.9367,3.9369,3.9371,3.9455,3.9456,3.9486,3.9503,0,0,0,3.9264,3.9272,3.9278,3.9283,3.9299,3.9325,3.9329,3.9345,3.9349,3.9369,3.9371,3.9455,3.9456,3.9485,3.95,3.9529,0,0,0,3.9263,3.9305,3.9279,3.9326,3.9299,3.9345,3.9329,3.9363,3.9384,3.937,3.9455,3.9457,3.9484,3.9498,3.9527,3.9554,3.9566,0,0,3.9318,3.9312,3.9339,3.9317,3.9369,3.9339,3.9396,3.941,3.9407,3.944,3.9442,3.9487,3.95,3.9528,3.9629,3.9638,0,0,0,3.9358,3.9378,3.9391,3.9411,3.9424,3.9436,3.9441,3.9447,3.9475,3.9425,3.9505,3.9512,3.9528,3.9541,3.9549,3.9564,3.9463,3.9462,3.9462,3.9442,3.9438,3.9483,3.9484,3.9504,3.9509,3.9525,3.9533,3.9521,3.954,3.9551,3.9612,3.9628,3.9634,3.9649,3.9564,3.9564,3.9564,3.9564,3.9524,3.9552,3.9537,3.9576,3.9571,3.9603,3.961,3.9601,3.963,3.9604,3.9618,3.9591,3.9644,3.9657,3.9566,3.9566,3.9566,3.9566,3.9565,3.958,3.9593,3.9599,3.963,3.9653,3.9651,3.9681,3.9674,3.9668,3.9682,3.9693,3.9693,3.9692,3.9688,3.9688,3.9688,3.9688,3.9689,3.9689,3.9635,3.9642,3.9668,3.9686,3.9699,3.9716,3.9722,3.9735,3.9747,3.974,3.974,3.9727,3.965,3.9631,3.9692,3.9691,3.9691,3.9691,3.9691,3.9722,3.9702,3.9742,3.9756,3.9777,3.9801,3.9793,3.9819,3.9828,3.9843,3.9827,3.9771,3.9763,3.9757,3.9742,3.9827,3.9827,3.9827,3.9827,3.977,3.9766,3.9807,3.9829,3.9849,3.9846,3.9892,3.9898,3.99,3.9905,3.9892,3.9871,3.9864,3.9861,3.9852,3.9838,3.9946,3.9946,3.9946,3.9824,3.9821,3.9862,3.9866,3.9882,3.9896,3.9939,3.9965,3.9963,3.9951,3.991,3.9905,3.987,3.9859,3.9847,3.9834,3.9807,0,0]}]]